Voltar ao catálogo

SJ-12

AtivoMilitarSSO
NORAD 36596·PAYLOAD·🇨🇳 China

Lançado Jun 15, 2010 de Jiuquan Satellite Launch Center

Loading…

Próximas Passagens (próximas 24 horas)

TLE

AtualizadoSource: Space-Track

Época: Sep 14, 2026, 11:57 UTC

1 36596U 10027A   26257.49819831  .00003374  00000-0  17228-3 0  9994
2 36596  97.7607 277.3489 0007513 138.0486 222.1324 15.17410758888406

Acompanhe SJ-12 em tempo real com AllMySat

Download on the App Store